Weather in Alkhan-Kala

Russia / Chechen Republic     43°15′44″N   45°32′05″E
temp.,
°C
wind,
m/s
gust,
m/s
humid.,
%
clouds,
%
prec.,
mm/h
press.,
hPa
HPBL,
m
3 august, tue
tue300:00+22wsw126422 0.0 101123
03:00+21wsw116415 0.0 101116
06:00+22wsw225961 0.0 101271
09:00+30wnw11395 0.0 1012521
12:00+35nne11284 0.0 10111689
15:00+36wnw11242 0.0 10092566
18:00+33ssw463515 0.0 1010288
21:00+25sw22560 0.0 101138
4 august, wed
wed400:00+23wsw22500 0.0 101125
03:00+23wsw22520 0.0 101224
06:00+24sw22500 0.0 101355
09:00+32wnw34340 0.0 1013736
12:00+36wnw32260 0.0 10112483
15:00+38wnw32220 0.0 10103186
18:00+35wnw4730100 0.0 1010469
21:00+27wsw3750100 0.0 1012123
5 august, thu
thu500:00+26w235298 0.0 101254
03:00+24w225667 0.1 101235
06:00+22w2478100 2.0 101391
09:00+29wnw344992 3.7 1013560
12:00+35nnw43300 0.0 10121764
15:00+36nw22264 0.0 10102538
18:00+34sw33329 0.0 1010217
21:00+26ssw23560 0.0 101153
6 august, fri
fri600:00+24ssw11600 0.0 101027
03:00+23sw11610 0.0 100918
06:00+24wsw11570 0.0 101034
09:00+31e23350 0.0 1010671
12:00+36ene34250 0.0 10071499
15:00+39ene76190 0.0 10042722
18:00+34ene711220 0.0 1005760
21:00+27ene243698 0.0 1006110
7 august, sat
sat700:00+24wnw1146100 0.0 100625
03:00+22se1151100 0.0 100520
06:00+23w225190 0.0 100562
09:00+30wnw223297 0.0 1005622
12:00+37n212292 0.0 10041191
15:00+39nnw111946 0.0 10021578
18:00+36wsw342836 0.1 1002152
21:00+27nw485481 0.5 1007234